Project,Study,Ord_Occ,Event_Num,Cast_ID,Date_Time_UTC,Date_Time_PST,Lat_Dec,Lon_Dec,Sta_ID,Line,Sta,Depth,Pressure,PrQ,Temp1,Temp1Q,Temp2,Temp2Q,TempAve,Salt1,Salt1Q,Salt1_Corr,Salt2,Salt2Q,Salt2_Corr,SaltAve_Corr,Ox1,Ox1Q,Ox1_CruiseCorr,Ox1_StaCorr,Ox2,Ox2Q,Ox2_CruiseCorr,Ox2_StaCorr,OxAve_StaCorr,Ox1uM,Ox1uM_CruiseCorr,Ox1uM_StaCorr,Ox2uM,Ox2uM_CruiseCorr,Ox2uM_StaCorr,OxAveuM_StaCorr,FluorV,FluorQ,EstChl_CruiseCorr,EstChl_StaCorr,ISUSV,ISUSQ,EstNO3_CruiseCorr,EstNO3_StaCorr,SigThetaTS1,SigThetaTS1Q,SigThetaTS2,SigThetaTS2Q,BAT,XMiss,TransQ,pH,pHQ,SPAR,SPARQ,PAR,PARQ,PoT1,PoT2,DynHt,SVA,OxSat1,OxSat2,BTL_Depth,BTL_Temp,SaltB,OxB,OxBuM,Chl-a,Phaeo,NO3,NO2,NH4,PO4,SIL
CalCOFI,2101RL,013,,2101_013d,18-Jan-2021 06:24:44,17-Jan-2021 22:24:44,31.17914,-120.91489,093.3 080.0,093.3,080.0,4.000,4.028,,14.4918,,14.4922,,14.4920,33.3368,,33.3426,33.3303,,33.3323,33.3375,5.6726,,5.9368,5.8671,5.6101,,5.9565,5.8171,5.8421,247.208,259.0375,255.9839,244.485,275.3516,253.8051,254.8945,0.1343,,0.8523,0.4659, ,, , ,24.7990,,24.7938,,0.8411,81.0372,,,,3.1908E+00,,1.0000E-12,,14.4913,14.4917,0.0020,314.028,97.637,96.558,4,,33.3308,5.954,259.72,0.496,0.144,,,,,
CalCOFI,2101RL,013,,2101_013d,18-Jan-2021 06:24:56,17-Jan-2021 22:24:56,31.17914,-120.91488,093.3 080.0,093.3,080.0,5.000,5.035,,14.4910,,14.4913,,14.4912,33.3368,,33.3426,33.3304,,33.3324,33.3375,5.6655,,5.9294,5.8597,5.6142,,5.9608,5.8214,5.8406,246.900,258.7151,255.6643,244.663,275.0091,253.9911,254.8277,0.1391,,0.8916,0.4868, ,, , ,24.7992,,24.7942,,0.8575,80.7095,,,,2.8806E+00,,1.0000E-12,,14.4902,14.4906,0.0118,314.035,97.514,96.627,,,,,,,,,,,,
CalCOFI,2101RL,013,,2101_013d,18-Jan-2021 06:24:59,17-Jan-2021 22:24:59,31.17914,-120.91491,093.3 080.0,093.3,080.0,6.000,6.042,,14.4906,,14.4912,,14.4909,33.3367,,33.3425,33.3303,,33.3323,33.3374,5.6664,,5.9304,5.8606,5.6337,,5.9816,5.8417,5.8512,246.937,258.7539,255.7027,245.515,275.0502,254.8811,255.2919,0.1382,,0.8842,0.4829, ,, , ,24.7993,,24.7942,,0.8416,81.0272,,,,3.6797E+00,,1.0000E-12,,14.4897,14.4903,0.0163,314.059,97.528,96.963,,,,,,,,,,,,
CalCOFI,2101RL,013,,2101_013d,18-Jan-2021 06:25:01,17-Jan-2021 22:25:01,31.17914,-120.91494,093.3 080.0,093.3,080.0,7.000,7.049,,14.4901,,14.4899,,14.4900,33.3367,,33.3425,33.3302,,33.3322,33.3374,5.6749,,5.9393,5.8694,5.6451,,5.9937,5.8536,5.8615,247.309,259.1433,256.0887,246.009,275.4639,255.3972,255.7430,0.1455,,0.9440,0.5147, ,, , ,24.7994,,24.7944,,0.8391,81.0762,,,,3.2330E+00,,1.0000E-12,,14.4891,14.4888,0.0195,314.077,97.674,97.155,,,,,,,,,,,,
CalCOFI,2101RL,013,,2101_013d,18-Jan-2021 06:25:04,17-Jan-2021 22:25:04,31.17914,-120.91496,093.3 080.0,093.3,080.0,8.000,8.056,,14.4901,,14.4903,,14.4902,33.3368,,33.3426,33.3302,,33.3322,33.3374,5.6668,,5.9308,5.8610,5.6538,,6.0029,5.8627,5.8619,246.953,258.7706,255.7193,246.392,275.0680,255.7973,255.7583,0.1389,,0.8900,0.4860, ,, , ,24.7994,,24.7944,,0.8364,81.1318,,,,3.7168E+00,,1.0000E-12,,14.4889,14.4891,0.0226,314.100,97.533,97.307,,,,,,,,,,,,
CalCOFI,2101RL,013,,2101_013d,18-Jan-2021 06:25:06,17-Jan-2021 22:25:06,31.17914,-120.91496,093.3 080.0,093.3,080.0,9.000,9.063,,14.4885,,14.4889,,14.4887,33.3366,,33.3424,33.3302,,33.3322,33.3373,5.6622,,5.9260,5.8563,5.6591,,6.0085,5.8682,5.8623,246.755,258.5633,255.5139,246.620,274.8478,256.0355,255.7747,0.1399,,0.8982,0.4903, ,, , ,24.7997,,24.7946,,0.8557,80.7414,,,,2.5483E+00,,1.0000E-12,,14.4872,14.4876,0.0258,314.107,97.452,97.395,,,,,,,,,,,,
CalCOFI,2101RL,013,,2101_013d,18-Jan-2021 06:25:07,17-Jan-2021 22:25:07,31.17912,-120.91495,093.3 080.0,093.3,080.0,10.000,10.070,,14.4915,,14.4926,,14.4921,33.3368,,33.3426,33.3303,,33.3323,33.3375,5.6622,,5.9260,5.8563,5.6557,,6.0049,5.8647,5.8605,246.756,258.5644,255.5149,246.471,274.8489,255.8798,255.6974,0.1361,,0.8670,0.4738, ,, , ,24.7992,,24.7940,,0.8665,80.5247,,,,3.5924E+00,,1.0000E-12,,14.4901,14.4911,0.0290,314.180,97.458,97.343,10,,33.3324,5.957,259.85,0.554,0.180,,,,,
CalCOFI,2101RL,013,,2101_013d,18-Jan-2021 06:25:09,17-Jan-2021 22:25:09,31.17912,-120.91494,093.3 080.0,093.3,080.0,11.000,11.077,,14.4932,,14.4934,,14.4933,33.3370,,33.3428,33.3306,,33.3326,33.3377,5.6704,,5.9345,5.8648,5.6434,,5.9919,5.8518,5.8583,247.113,258.9381,255.8853,245.936,275.2459,255.3209,255.6031,0.1428,,0.9219,0.5029, ,, , ,24.7991,,24.7940,,0.8713,80.4285,,,,2.5044E+00,,1.0000E-12,,14.4915,14.4918,0.0321,314.224,97.603,97.134,,,,,,,,,,,,
CalCOFI,2101RL,013,,2101_013d,18-Jan-2021 06:25:10,17-Jan-2021 22:25:10,31.17914,-120.91492,093.3 080.0,093.3,080.0,12.000,12.084,,14.4918,,14.4927,,14.4923,33.3367,,33.3425,33.3303,,33.3323,33.3374,5.6708,,5.9350,5.8652,5.6402,,5.9885,5.8485,5.8569,247.128,258.9538,255.9009,245.795,275.2626,255.1736,255.5373,0.1498,,0.9793,0.5334, ,, , ,24.7991,,24.7940,,0.8528,80.8013,,,,2.9138E+00,,1.0000E-12,,14.4901,14.4910,0.0353,314.248,97.606,97.077,,,,,,,,,,,,
CalCOFI,2101RL,013,,2101_013d,18-Jan-2021 06:25:12,17-Jan-2021 22:25:12,31.17914,-120.91492,093.3 080.0,093.3,080.0,13.000,13.091,,14.4871,,14.4875,,14.4873,33.3358,,33.3416,33.3295,,33.3315,33.3366,5.6574,,5.9209,5.8513,5.6408,,5.9891,5.8491,5.8502,246.543,258.3414,255.2939,245.823,274.6121,255.2029,255.2484,0.1435,,0.9277,0.5060, ,, , ,24.7995,,24.7945,,0.8497,80.8623,,,,3.6753E+00,,1.0000E-12,,14.4852,14.4856,0.0384,314.240,97.365,97.077,,,,,,,,,,,,
CalCOFI,2101RL,013,,2101_013d,18-Jan-2021 06:25:14,17-Jan-2021 22:25:14,31.17914,-120.91492,093.3 080.0,093.3,080.0,14.000,14.098,,14.4847,,14.4840,,14.4844,33.3358,,33.3416,33.3296,,33.3316,33.3366,5.6582,,5.9218,5.8521,5.6539,,6.0030,5.8628,5.8575,246.580,258.3801,255.3323,246.395,274.6532,255.8004,255.5664,0.1397,,0.8965,0.4894, ,, , ,24.8001,,24.7954,,0.8393,81.0729,,,,3.1158E+00,,1.0000E-12,,14.4826,14.4819,0.0416,314.218,97.375,97.296,,,,,,,,,,,,
CalCOFI,2101RL,013,,2101_013d,18-Jan-2021 06:25:18,17-Jan-2021 22:25:18,31.17912,-120.91494,093.3 080.0,093.3,080.0,15.000,15.105,,14.4691,,14.4701,,14.4696,33.3341,,33.3399,33.3283,,33.3303,33.3351,5.6674,,5.9314,5.8617,5.6512,,6.0001,5.8600,5.8609,246.980,258.7989,255.7473,246.273,275.0980,255.6730,255.7102,0.1421,,0.9162,0.4999, ,, , ,24.8020,,24.7974,,0.8387,81.0841,,,,3.3725E+00,,1.0000E-12,,14.4670,14.4679,0.0448,314.059,97.501,97.220,,,,,,,,,,,,
CalCOFI,2101RL,013,,2101_013d,18-Jan-2021 06:25:20,17-Jan-2021 22:25:20,31.17912,-120.91494,093.3 080.0,093.3,080.0,16.000,16.112,,14.4556,,14.4511,,14.4534,33.3321,,33.3379,33.3245,,33.3265,33.3322,5.6486,,5.9117,5.8422,5.6494,,5.9982,5.8581,5.8502,246.162,257.9426,254.8986,246.199,274.1884,255.5957,255.2472,0.1531,,1.0063,0.5478, ,, , ,24.8034,,24.7985,,0.8468,80.9207,,,,3.1024E+00,,1.0000E-12,,14.4533,14.4488,0.0479,313.955,97.151,97.152,,,,,,,,,,,,
CalCOFI,2101RL,013,,2101_013d,18-Jan-2021 06:25:21,17-Jan-2021 22:25:21,31.17912,-120.91494,093.3 080.0,093.3,080.0,17.000,17.119,,14.4296,,14.4309,,14.4303,33.3282,,33.3340,33.3222,,33.3242,33.3291,5.6914,,5.9565,5.8866,5.6904,,6.0418,5.9009,5.8938,248.027,259.8949,256.8337,247.982,276.2623,257.4583,257.1460,0.1524,,1.0006,0.5447, ,, , ,24.8059,,24.8010,,0.8508,80.8395,,,,3.6981E+00,,1.0000E-12,,14.4272,14.4284,0.0511,313.746,97.834,97.814,,,,,,,,,,,,
CalCOFI,2101RL,013,,2101_013d,18-Jan-2021 06:25:26,17-Jan-2021 22:25:26,31.17912,-120.91495,093.3 080.0,093.3,080.0,18.000,18.126,,14.3801,,14.3925,,14.3863,33.3232,,33.3290,33.3182,,33.3202,33.3246,5.6956,,5.9609,5.8909,5.6804,,6.0312,5.8905,5.8907,248.207,260.0833,257.0205,247.544,276.4625,257.0007,257.0106,0.1750,,1.1858,0.6431, ,, , ,24.8125,,24.8060,,0.8501,80.8533,,,,3.1800E+00,,1.0000E-12,,14.3775,14.3899,0.0552,313.144,97.804,97.564,,,,,,,,,,,,
CalCOFI,2101RL,013,,2101_013d,18-Jan-2021 06:25:35,17-Jan-2021 22:25:35,31.17910,-120.91492,093.3 080.0,093.3,080.0,19.000,19.133,,14.2800,,14.3191,,14.2996,33.3128,,33.3186,33.3127,,33.3147,33.3167,5.7020,,5.9676,5.8975,5.6825,,6.0334,5.8927,5.8951,248.484,260.3733,257.3079,247.636,276.7705,257.0969,257.2024,0.1826,,1.2480,0.6762, ,, , ,24.8256,,24.8173,,0.8478,80.8999,,,,2.7485E+00,,1.0000E-12,,14.2773,14.3163,0.0591,311.930,97.711,97.453,,,,,,,,,,,,
CalCOFI,2101RL,013,,2101_013d,18-Jan-2021 06:25:43,17-Jan-2021 22:25:43,31.17908,-120.91490,093.3 080.0,093.3,080.0,20.000,20.140,,14.2631,,14.2645,,14.2638,33.3101,,33.3159,33.3028,,33.3048,33.3104,5.6868,,5.9517,5.8818,5.6837,,6.0347,5.8939,5.8879,247.818,259.6761,256.6169,247.685,276.0299,257.1480,256.8825,0.1913,,1.3193,0.7141, ,, , ,24.8271,,24.8212,,0.8451,80.9548,,,,2.7409E+00,,1.0000E-12,,14.2602,14.2616,0.0622,311.814,97.414,97.360,20,,33.3027,5.971,260.47,0.655,0.225,,,,,
CalCOFI,2101RL,013,,2101_013d,18-Jan-2021 06:25:48,17-Jan-2021 22:25:48,31.17908,-120.91488,093.3 080.0,093.3,080.0,21.000,21.147,,14.2654,,14.2634,,14.2644,33.3105,,33.3163,33.3039,,33.3059,33.3111,5.6962,,5.9615,5.8915,5.6808,,6.0316,5.8909,5.8912,248.230,260.1074,257.0443,247.561,276.4881,257.0185,257.0314,0.1799,,1.2259,0.6645, ,, , ,24.8269,,24.8223,,0.8449,80.9591,,,,3.0187E+00,,1.0000E-12,,14.2624,14.2603,0.0653,311.859,97.581,97.310,,,,,,,,,,,,
CalCOFI,2101RL,013,,2101_013d,18-Jan-2021 06:25:53,17-Jan-2021 22:25:53,31.17907,-120.91487,093.3 080.0,093.3,080.0,22.000,22.154,,14.2588,,14.2597,,14.2593,33.3098,,33.3156,33.3034,,33.3054,33.3105,5.6935,,5.9587,5.8887,5.6832,,6.0341,5.8934,5.8911,248.110,259.9817,256.9198,247.665,276.3546,257.1271,257.0235,0.1865,,1.2800,0.6932, ,, , ,24.8278,,24.8227,,0.8439,80.9800,,,,3.4021E+00,,1.0000E-12,,14.2556,14.2565,0.0685,311.800,97.521,97.343,,,,,,,,,,,,
CalCOFI,2101RL,013,,2101_013d,18-Jan-2021 06:25:58,17-Jan-2021 22:25:58,31.17904,-120.91484,093.3 080.0,093.3,080.0,23.000,23.161,,14.2550,,14.2573,,14.2562,33.3095,,33.3153,33.3032,,33.3052,33.3103,5.6754,,5.9398,5.8700,5.6750,,6.0254,5.8848,5.8774,247.321,259.1558,256.1012,247.309,275.4772,256.7552,256.4282,0.1916,,1.3218,0.7154, ,, , ,24.8284,,24.8231,,0.8444,80.9686,,,,3.4980E+00,,1.0000E-12,,14.2517,14.2540,0.0716,311.773,97.203,97.198,,,,,,,,,,,,
CalCOFI,2101RL,013,,2101_013d,18-Jan-2021 06:26:02,17-Jan-2021 22:26:02,31.17904,-120.91484,093.3 080.0,093.3,080.0,24.000,24.168,,14.2318,,14.2314,,14.2316,33.3062,,33.3120,33.2998,,33.3018,33.3069,5.6797,,5.9443,5.8744,5.6779,,6.0285,5.8878,5.8811,247.508,259.3516,256.2952,247.433,275.6852,256.8848,256.5900,0.1752,,1.1874,0.6440, ,, , ,24.8308,,24.8259,,0.8399,81.0606,,,,3.7005E+00,,1.0000E-12,,14.2284,14.2279,0.0748,311.573,97.229,97.194,,,,,,,,,,,,
CalCOFI,2101RL,013,,2101_013d,18-Jan-2021 06:26:04,17-Jan-2021 22:26:04,31.17904,-120.91484,093.3 080.0,093.3,080.0,25.000,25.175,,14.2211,,14.2218,,14.2215,33.3050,,33.3108,33.2986,,33.3006,33.3057,5.6810,,5.9456,5.8758,5.6694,,6.0195,5.8790,5.8774,247.564,259.4102,256.3533,247.060,275.7475,256.4951,256.4242,0.1779,,1.2095,0.6558, ,, , ,24.8321,,24.8270,,0.8423,81.0121,,,,3.6947E+00,,1.0000E-12,,14.2175,14.2182,0.0779,311.477,97.229,97.029,,,,,,,,,,,,
CalCOFI,2101RL,013,,2101_013d,18-Jan-2021 06:26:07,17-Jan-2021 22:26:07,31.17902,-120.91486,093.3 080.0,093.3,080.0,26.000,26.182,,14.2050,,14.2069,,14.2060,33.3034,,33.3092,33.2968,,33.2988,33.3040,5.6731,,5.9374,5.8676,5.6567,,6.0060,5.8657,5.8667,247.220,259.0501,255.9964,246.506,275.3649,255.9164,255.9564,0.1848,,1.2661,0.6858, ,, , ,24.8343,,24.8288,,0.8356,81.1472,,,,3.6947E+00,,1.0000E-12,,14.2013,14.2031,0.0810,311.297,97.062,96.781,,,,,,,,,,,,
CalCOFI,2101RL,013,,2101_013d,18-Jan-2021 06:26:14,17-Jan-2021 22:26:14,31.17901,-120.91485,093.3 080.0,093.3,080.0,27.000,27.189,,14.1913,,14.2001,,14.1957,33.3036,,33.3094,33.2955,,33.2975,33.3035,5.6780,,5.9425,5.8727,5.6528,,6.0018,5.8617,5.8672,247.435,259.2752,256.2195,246.339,275.6040,255.7419,255.9807,0.1723,,1.1636,0.6314, ,, , ,24.8373,,24.8292,,0.8312,81.2377,,,,3.4430E+00,,1.0000E-12,,14.1875,14.1962,0.0842,311.037,97.120,96.701,,,,,,,,,,,,
CalCOFI,2101RL,013,,2101_013d,18-Jan-2021 06:26:15,17-Jan-2021 22:26:15,31.17902,-120.91484,093.3 080.0,093.3,080.0,28.000,28.196,,14.1918,,14.1845,,14.1882,33.3012,,33.3070,33.2938,,33.2958,33.3014,5.6550,,5.9184,5.8488,5.6410,,5.9893,5.8493,5.8491,246.433,258.2263,255.1798,245.825,274.4898,255.2050,255.1924,0.1609,,1.0702,0.5817, ,, , ,24.8354,,24.8312,,0.8292,81.2770,,,,3.6956E+00,,1.0000E-12,,14.1878,14.1805,0.0873,311.252,96.726,96.468,,,,,,,,,,,,
CalCOFI,2101RL,013,,2101_013d,18-Jan-2021 06:26:16,17-Jan-2021 22:26:16,31.17904,-120.91484,093.3 080.0,093.3,080.0,29.000,29.204,,14.1509,,14.1464,,14.1487,33.2961,,33.3019,33.2884,,33.2904,33.2962,5.6631,,5.9269,5.8572,5.6376,,5.9857,5.8458,5.8515,246.786,258.5958,255.5460,245.672,274.8823,255.0451,255.2956,0.1590,,1.0547,0.5735, ,, , ,24.8400,,24.8350,,0.8230,81.4026,,,,3.4224E+00,,1.0000E-12,,14.1467,14.1423,0.0904,310.834,96.782,96.331,,,,,,,,,,,,
CalCOFI,2101RL,013,,2101_013d,18-Jan-2021 06:26:20,17-Jan-2021 22:26:20,31.17904,-120.91481,093.3 080.0,093.3,080.0,30.000,30.211,,14.0999,,14.0936,,14.0968,33.2920,,33.2978,33.2824,,33.2844,33.2911,5.6350,,5.8975,5.8281,5.6327,,5.9805,5.8407,5.8344,245.558,257.3103,254.2718,245.459,273.5167,254.8226,254.5472,0.1712,,1.1546,0.6266, ,, , ,24.8475,,24.8414,,0.8223,81.4181,,,,3.4265E+00,,1.0000E-12,,14.0956,14.0893,0.0936,310.147,96.199,96.141,,,,,,,,,,,,
CalCOFI,2101RL,013,,2101_013d,18-Jan-2021 06:26:23,17-Jan-2021 22:26:23,31.17904,-120.91480,093.3 080.0,093.3,080.0,31.000,31.218,,13.9655,,13.9684,,13.9670,33.2716,,33.2774,33.2656,,33.2676,33.2725,5.6482,,5.9113,5.8418,5.6302,,5.9778,5.8381,5.8400,246.131,257.9101,254.8664,245.346,274.1539,254.7046,254.7855,0.1642,,1.0973,0.5961, ,, , ,24.8597,,24.8544,,0.8123,81.6227,,,,3.6956E+00,,1.0000E-12,,13.9611,13.9640,0.0967,309.011,96.150,95.845,,,,,,,,,,,,
CalCOFI,2101RL,013,,2101_013d,18-Jan-2021 06:26:25,17-Jan-2021 22:26:25,31.17904,-120.91479,093.3 080.0,093.3,080.0,32.000,32.225,,13.9067,,13.9064,,13.9066,33.2651,,33.2709,33.2587,,33.2607,33.2658,5.6303,,5.8926,5.8232,5.6182,,5.9651,5.8255,5.8244,245.348,257.0905,254.0539,244.821,273.2832,254.1561,254.1050,0.1608,,1.0694,0.5813, ,, , ,24.8668,,24.8620,,0.8094,81.6812,,,,3.3874E+00,,1.0000E-12,,13.9021,13.9018,0.0998,308.356,95.726,95.516,,,,,,,,,,,,
CalCOFI,2101RL,013,,2101_013d,18-Jan-2021 06:26:28,17-Jan-2021 22:26:28,31.17904,-120.91477,093.3 080.0,093.3,080.0,33.000,33.232,,13.8009,,13.8016,,13.8013,33.2528,,33.2586,33.2473,,33.2493,33.2540,5.6287,,5.8909,5.8216,5.6164,,5.9632,5.8237,5.8227,245.273,257.0120,253.9761,244.740,273.1998,254.0715,254.0238,0.1594,,1.0579,0.5752, ,, , ,24.8791,,24.8747,,0.8062,81.7474,,,,3.7184E+00,,1.0000E-12,,13.7963,13.7970,0.1029,307.209,95.486,95.276,,,,,,,,,,,,
CalCOFI,2101RL,013,,2101_013d,18-Jan-2021 06:26:30,17-Jan-2021 22:26:30,31.17904,-120.91476,093.3 080.0,093.3,080.0,34.000,34.239,,13.6652,,13.6646,,13.6649,33.2387,,33.2445,33.2324,,33.2344,33.2395,5.6394,,5.9021,5.8326,5.6245,,5.9718,5.8321,5.8324,245.738,257.4987,254.4586,245.092,273.7169,254.4392,254.4489,0.1569,,1.0375,0.5643, ,, , ,24.8960,,24.8913,,0.7984,81.9069,,,,3.6407E+00,,1.0000E-12,,13.6604,13.6598,0.1060,305.619,95.395,95.139,,,,,,,,,,,,
CalCOFI,2101RL,013,,2101_013d,18-Jan-2021 06:26:32,17-Jan-2021 22:26:32,31.17905,-120.91475,093.3 080.0,093.3,080.0,35.000,35.246,,13.6370,,13.6359,,13.6365,33.2372,,33.2430,33.2310,,33.2330,33.2380,5.6386,,5.9013,5.8318,5.6219,,5.9690,5.8294,5.8306,245.701,257.4600,254.4202,244.976,273.6758,254.3181,254.3692,0.1533,,1.0080,0.5487, ,, , ,24.9006,,24.8960,,0.7934,82.0078,,,,2.5418E+00,,1.0000E-12,,13.6321,13.6310,0.1091,305.209,95.325,95.038,,,,,,,,,,,,
CalCOFI,2101RL,013,,2101_013d,18-Jan-2021 06:26:35,17-Jan-2021 22:26:35,31.17906,-120.91474,093.3 080.0,093.3,080.0,36.000,36.253,,13.6238,,13.6247,,13.6243,33.2378,,33.2436,33.2314,,33.2334,33.2385,5.6344,,5.8969,5.8275,5.6102,,5.9566,5.8172,5.8224,245.520,257.2705,254.2324,244.466,273.4745,253.7853,254.0089,0.1536,,1.0104,0.5500, ,, , ,24.9038,,24.8987,,0.7862,82.1555,,,,2.7853E+00,,1.0000E-12,,13.6188,13.6197,0.1121,304.929,95.230,94.819,,,,,,,,,,,,
CalCOFI,2101RL,013,,2101_013d,18-Jan-2021 06:26:37,17-Jan-2021 22:26:37,31.17906,-120.91474,093.3 080.0,093.3,080.0,37.000,37.260,,13.6151,,13.6156,,13.6154,33.2380,,33.2438,33.2318,,33.2338,33.2388,5.6303,,5.8926,5.8232,5.6252,,5.9725,5.8328,5.8280,245.338,257.0800,254.0436,245.120,273.2721,254.4685,254.2561,0.1496,,0.9776,0.5325, ,, , ,24.9058,,24.9009,,0.7836,82.2088,,,,2.0385E+00,,1.0000E-12,,13.6100,13.6104,0.1152,304.771,95.143,95.055,,,,,,,,,,,,
CalCOFI,2101RL,013,,2101_013d,18-Jan-2021 06:26:40,17-Jan-2021 22:26:40,31.17904,-120.91474,093.3 080.0,093.3,080.0,38.000,38.268,,13.6071,,13.6072,,13.6072,33.2381,,33.2439,33.2319,,33.2339,33.2389,5.6288,,5.8910,5.8217,5.6180,,5.9649,5.8253,5.8235,245.272,257.0109,253.9751,244.804,273.1987,254.1384,254.0568,0.1411,,0.9080,0.4955, ,, , ,24.9075,,24.9027,,0.7809,82.2652,,,,1.8397E+00,,1.0000E-12,,13.6018,13.6019,0.1183,304.632,95.102,94.917,,,,,,,,,,,,
CalCOFI,2101RL,013,,2101_013d,18-Jan-2021 06:26:41,17-Jan-2021 22:26:41,31.17904,-120.91474,093.3 080.0,093.3,080.0,39.000,39.275,,13.6023,,13.6025,,13.6024,33.2383,,33.2441,33.2320,,33.2340,33.2391,5.6155,,5.8771,5.8079,5.6149,,5.9616,5.8221,5.8150,244.692,256.4038,253.3733,244.669,272.5537,253.9973,253.6853,0.1369,,0.8736,0.4773, ,, , ,24.9087,,24.9037,,0.7782,82.3205,,,,2.4928E+00,,1.0000E-12,,13.5969,13.5971,0.1213,304.550,94.868,94.856,,,,,,,,,,,,
CalCOFI,2101RL,013,,2101_013d,18-Jan-2021 06:26:43,17-Jan-2021 22:26:43,31.17904,-120.91474,093.3 080.0,093.3,080.0,40.000,40.282,,13.5929,,13.5930,,13.5930,33.2380,,33.2438,33.2316,,33.2336,33.2387,5.6288,,5.8910,5.8217,5.6116,,5.9581,5.8187,5.8202,245.272,257.0109,253.9751,244.522,273.1987,253.8438,253.9095,0.1339,,0.8490,0.4642, ,, , ,24.9104,,24.9054,,0.7762,82.3617,,,,2.1105E+00,,1.0000E-12,,13.5873,13.5874,0.1244,304.417,95.075,94.780,,,,,,,,,,,,
CalCOFI,2101RL,013,,2101_013d,18-Jan-2021 06:26:44,17-Jan-2021 22:26:44,31.17904,-120.91474,093.3 080.0,093.3,080.0,41.000,41.289,,13.5810,,13.5812,,13.5811,33.2369,,33.2427,33.2306,,33.2326,33.2377,5.6200,,5.8818,5.8125,5.5964,,5.9419,5.8028,5.8077,244.888,256.6090,253.5766,243.861,272.7717,253.1533,253.3650,0.1350,,0.8580,0.4690, ,, , ,24.9120,,24.9071,,0.7743,82.4014,,,,2.1986E+00,,1.0000E-12,,13.5753,13.5755,0.1275,304.292,94.902,94.500,,,,,,,,,,,,
CalCOFI,2101RL,013,,2101_013d,18-Jan-2021 06:26:46,17-Jan-2021 22:26:46,31.17902,-120.91474,093.3 080.0,093.3,080.0,42.000,42.296,,13.5762,,13.5767,,13.5765,33.2364,,33.2422,33.2302,,33.2322,33.2372,5.6324,,5.8948,5.8254,5.6147,,5.9614,5.8219,5.8237,245.429,257.1753,254.1380,244.657,273.3733,253.9848,254.0614,0.1358,,0.8646,0.4725, ,, , ,24.9126,,24.9077,,0.7723,82.4410,,,,2.4244E+00,,1.0000E-12,,13.5704,13.5708,0.1305,304.261,95.103,94.800,,,,,,,,,,,,
CalCOFI,2101RL,013,,2101_013d,18-Jan-2021 06:26:49,17-Jan-2021 22:26:49,31.17900,-120.91474,093.3 080.0,093.3,080.0,43.000,43.303,,13.5711,,13.5706,,13.5709,33.2358,,33.2416,33.2295,,33.2315,33.2366,5.6187,,5.8804,5.8112,5.6043,,5.9503,5.8110,5.8111,244.830,256.5482,253.5164,244.207,272.7072,253.5147,253.5156,0.1360,,0.8662,0.4733, ,, , ,24.9132,,24.9084,,0.7711,82.4675,,,,2.0654E+00,,1.0000E-12,,13.5651,13.5646,0.1336,304.229,94.860,94.614,,,,,,,,,,,,
CalCOFI,2101RL,013,,2101_013d,18-Jan-2021 06:26:52,17-Jan-2021 22:26:52,31.17899,-120.91474,093.3 080.0,093.3,080.0,44.000,44.310,,13.5595,,13.5590,,13.5593,33.2344,,33.2402,33.2282,,33.2302,33.2352,5.6140,,5.8755,5.8063,5.5951,,5.9406,5.8014,5.8039,244.627,256.3357,253.3058,243.806,272.4815,253.0958,253.2008,0.1318,,0.8318,0.4550, ,, , ,24.9145,,24.9098,,0.7709,82.4715,,,,2.1730E+00,,1.0000E-12,,13.5534,13.5529,0.1367,304.132,94.758,94.435,,,,,,,,,,,,
CalCOFI,2101RL,013,,2101_013d,18-Jan-2021 06:26:53,17-Jan-2021 22:26:53,31.17898,-120.91474,093.3 080.0,093.3,080.0,45.000,45.318,,13.5423,,13.5426,,13.5425,33.2333,,33.2391,33.2271,,33.2291,33.2341,5.6175,,5.8792,5.8099,5.5968,,5.9424,5.8032,5.8066,244.779,256.4949,253.4635,243.878,272.6505,253.1710,253.3173,0.1277,,0.7982,0.4372, ,, , ,24.9171,,24.9123,,0.7663,82.5658,,,,1.8465E+00,,1.0000E-12,,13.5360,13.5363,0.1397,303.905,94.783,94.431,,,,,,,,,,,,
CalCOFI,2101RL,013,,2101_013d,18-Jan-2021 06:26:54,17-Jan-2021 22:26:54,31.17898,-120.91474,093.3 080.0,093.3,080.0,46.000,46.325,,13.5358,,13.5362,,13.5360,33.2332,,33.2390,33.2270,,33.2290,33.2340,5.5995,,5.8603,5.7913,5.5880,,5.9330,5.7940,5.7927,243.992,255.6710,252.6469,243.494,271.7753,252.7699,252.7084,0.1244,,0.7711,0.4228, ,, , ,24.9184,,24.9135,,0.7631,82.6324,,,,1.8474E+00,,1.0000E-12,,13.5294,13.5298,0.1428,303.810,94.466,94.270,,,,,,,,,,,,
CalCOFI,2101RL,013,,2101_013d,18-Jan-2021 06:26:56,17-Jan-2021 22:26:56,31.17896,-120.91476,093.3 080.0,093.3,080.0,47.000,47.332,,13.5304,,13.5306,,13.5305,33.2336,,33.2394,33.2274,,33.2294,33.2344,5.5996,,5.8604,5.7914,5.5870,,5.9320,5.7930,5.7922,243.998,255.6773,252.6532,243.449,271.7820,252.7229,252.6881,0.1187,,0.7244,0.3980, ,, , ,24.9198,,24.9150,,0.7607,82.6823,,,,2.0063E+00,,1.0000E-12,,13.5239,13.5241,0.1458,303.702,94.458,94.242,,,,,,,,,,,,
CalCOFI,2101RL,013,,2101_013d,18-Jan-2021 06:26:58,17-Jan-2021 22:26:58,31.17896,-120.91476,093.3 080.0,093.3,080.0,48.000,48.339,,13.5209,,13.5212,,13.5211,33.2341,,33.2399,33.2279,,33.2299,33.2349,5.6232,,5.8851,5.8158,5.5861,,5.9310,5.7920,5.8039,245.025,256.7524,253.7188,243.410,272.9240,252.6821,253.2005,0.1177,,0.7162,0.3937, ,, , ,24.9222,,24.9173,,0.7594,82.7076,,,,2.0082E+00,,1.0000E-12,,13.5142,13.5146,0.1489,303.505,94.838,94.209,,,,,,,,,,,,
CalCOFI,2101RL,013,,2101_013d,18-Jan-2021 06:27:00,17-Jan-2021 22:27:00,31.17896,-120.91476,093.3 080.0,093.3,080.0,49.000,49.346,,13.5100,,13.5102,,13.5101,33.2354,,33.2412,33.2292,,33.2312,33.2362,5.5838,,5.8439,5.7750,5.5603,,5.9036,5.7651,5.7701,243.309,254.9561,251.9382,242.287,271.0158,251.5090,251.7236,0.1185,,0.7228,0.3971, ,, , ,24.9254,,24.9206,,0.7581,82.7358,,,,2.0080E+00,,1.0000E-12,,13.5032,13.5034,0.1519,303.226,94.154,93.755,,,,,,,,,,,,
CalCOFI,2101RL,013,,2101_013d,18-Jan-2021 06:27:02,17-Jan-2021 22:27:02,31.17896,-120.91476,093.3 080.0,093.3,080.0,50.000,50.354,,13.4965,,13.4966,,13.4966,33.2363,,33.2421,33.2301,,33.2321,33.2371,5.5499,,5.8084,5.7399,5.5463,,5.8887,5.7505,5.7452,241.829,253.4068,250.4026,241.673,269.3700,250.8675,250.6351,0.1138,,0.6843,0.3767, ,, , ,24.9289,,24.9241,,0.7525,82.8509,,,,2.1769E+00,,1.0000E-12,,13.4895,13.4896,0.1550,302.922,93.556,93.492,,,,,,,,,,,,
CalCOFI,2101RL,013,,2101_013d,18-Jan-2021 06:27:04,17-Jan-2021 22:27:04,31.17896,-120.91476,093.3 080.0,093.3,080.0,51.000,51.361,,13.4770,,13.4765,,13.4768,33.2356,,33.2414,33.2295,,33.2315,33.2365,5.5146,,5.7715,5.7033,5.5062,,5.8461,5.7086,5.7060,240.292,251.7979,248.8078,239.928,267.6609,249.0446,248.9262,0.1048,,0.6105,0.3375, ,, , ,24.9323,,24.9277,,0.7473,82.9583,,,,3.2564E+00,,1.0000E-12,,13.4699,13.4694,0.1581,302.622,92.924,92.779,51,,33.2580,5.703,248.80,0.312,0.184,,,,,
CalCOFI,2101RL,013,,2101_013d,18-Jan-2021 06:27:06,17-Jan-2021 22:27:06,31.17896,-120.91476,093.3 080.0,093.3,080.0,52.000,52.368,,13.4415,,13.4400,,13.4408,33.2368,,33.2426,33.2309,,33.2329,33.2378,5.4793,,5.7345,5.6667,5.4659,,5.8033,5.6666,5.6667,238.749,250.1827,247.2067,238.167,265.9450,247.2050,247.2059,0.0899,,0.4884,0.2726, ,, , ,24.9405,,24.9361,,0.7374,83.1640,,,,2.4959E+00,,1.0000E-12,,13.4342,13.4328,0.1611,301.869,92.262,92.031,,,,,,,,,,,,
CalCOFI,2101RL,013,,2101_013d,18-Jan-2021 06:27:07,17-Jan-2021 22:27:07,31.17896,-120.91476,093.3 080.0,093.3,080.0,53.000,53.375,,13.4219,,13.4229,,13.4224,33.2399,,33.2457,33.2334,,33.2354,33.2406,5.4785,,5.7337,5.6658,5.4553,,5.7921,5.6555,5.6607,238.712,250.1439,247.1683,237.705,265.9039,246.7223,246.9453,0.0868,,0.4630,0.2591, ,, , ,24.9468,,24.9416,,0.7332,83.2525,,,,2.7115E+00,,1.0000E-12,,13.4145,13.4156,0.1641,301.293,92.213,91.822,,,,,,,,,,,,